Time,TemperatureF,DewpointF,PressureIn,WindDirection,WindDirectionDegrees,WindSpeedMPH,WindSpeedGustMPH,Humidity,HourlyPrecipIn,Conditions,Clouds,dailyrainin,SoftwareType,DateUTC
2013-07-03 00:01:00,65.2,59.9,29.99,North,5,0.0,0.0,83,0.00,,-RA,2.17,VWS V14.01,2013-07-03 05:01:00,
2013-07-03 00:07:00,65.2,59.9,29.99,North,5,0.0,0.0,83,0.00,,-RA,0.00,VWS V14.01,2013-07-03 05:07:00,
2013-07-03 00:12:00,65.2,59.9,29.99,North,5,0.0,0.0,83,0.00,,-RA,0.00,VWS V14.01,2013-07-03 05:12:00,
2013-07-03 00:17:00,65.2,59.9,29.99,North,5,0.0,0.0,83,0.00,,-RA,0.00,VWS V14.01,2013-07-03 05:17:00,
2013-07-03 00:22:00,65.2,59.9,29.99,North,5,0.0,0.0,83,0.00,,-RA,0.00,VWS V14.01,2013-07-03 05:22:00,
2013-07-03 00:27:00,65.2,59.9,29.99,North,5,0.0,0.0,83,0.00,,-RA,0.00,VWS V14.01,2013-07-03 05:27:00,
2013-07-03 00:32:00,65.2,59.9,29.98,North,5,0.0,0.0,83,0.00,,CLR,0.00,VWS V14.01,2013-07-03 05:32:00,
2013-07-03 00:37:00,65.2,59.9,29.99,North,5,0.0,0.0,83,0.00,,CLR,0.00,VWS V14.01,2013-07-03 05:37:00,
2013-07-03 00:47:00,65.2,59.9,29.99,North,5,0.0,0.0,83,0.00,,CLR,0.00,VWS V14.01,2013-07-03 05:47:00,
2013-07-03 00:52:00,65.2,59.9,29.99,North,5,0.0,0.0,83,0.00,,CLR,0.00,VWS V14.01,2013-07-03 05:52:00,
2013-07-03 00:57:00,65.2,59.9,29.98,North,5,0.0,0.0,83,0.00,,CLR,0.00,VWS V14.01,2013-07-03 05:57:00,
2013-07-03 01:02:00,65.2,59.9,29.98,North,5,0.0,0.0,83,0.00,,CLR,0.00,VWS V14.01,2013-07-03 06:02:00,
2013-07-03 01:08:00,65.1,59.8,29.98,North,5,0.0,0.0,83,0.00,,CLR,0.00,VWS V14.01,2013-07-03 06:08:00,
2013-07-03 01:13:00,65.1,59.8,29.99,North,5,0.0,0.0,83,0.00,,CLR,0.00,VWS V14.01,2013-07-03 06:13:00,
2013-07-03 01:18:00,65.0,59.7,29.99,North,5,0.0,0.0,83,0.00,,CLR,0.00,VWS V14.01,2013-07-03 06:18:00,
2013-07-03 01:21:00,65.0,59.7,29.99,North,5,0.0,0.0,83,0.00,,CLR,0.00,VWS V14.01,2013-07-03 06:21:00,
2013-07-03 01:23:00,65.0,59.7,29.99,North,5,0.0,0.0,83,0.00,,CLR,0.00,VWS V14.01,2013-07-03 06:23:00,
2013-07-03 01:28:00,65.0,59.7,29.98,North,5,0.0,0.0,83,0.00,,CLR,0.00,VWS V14.01,2013-07-03 06:28:00,
2013-07-03 01:38:00,64.9,59.6,29.98,North,5,0.0,0.0,83,0.00,,,0.00,VWS V14.01,2013-07-03 06:38:00,
2013-07-03 01:41:00,64.9,59.6,29.98,North,5,0.0,0.0,83,0.00,,,0.00,VWS V14.01,2013-07-03 06:41:00,
2013-07-03 01:48:00,64.8,59.5,29.98,North,5,0.0,0.0,83,0.00,,,0.00,VWS V14.01,2013-07-03 06:48:00,
2013-07-03 01:53:00,64.8,59.5,29.98,North,5,0.0,0.0,83,0.00,,,0.00,VWS V14.01,2013-07-03 06:53:00,
2013-07-03 02:01:00,64.7,59.4,29.98,North,5,0.0,1.0,83,0.00,,,0.00,VWS V14.01,2013-07-03 07:01:00,
2013-07-03 02:08:00,64.7,59.4,29.98,North,5,0.0,0.0,83,0.00,,,0.00,VWS V14.01,2013-07-03 07:08:00,
2013-07-03 02:21:00,64.7,59.4,29.98,North,5,0.0,0.0,83,0.00,,,0.00,VWS V14.01,2013-07-03 07:21:00,
2013-07-03 02:31:00,64.7,59.4,29.98,North,5,0.0,0.0,83,0.01,,,0.01,VWS V14.01,2013-07-03 07:31:00,
2013-07-03 02:38:00,64.6,59.3,29.98,North,5,0.0,0.0,83,0.01,,,0.01,VWS V14.01,2013-07-03 07:38:00,
2013-07-03 02:43:00,64.6,59.3,29.98,North,5,0.0,0.0,83,0.01,,,0.01,VWS V14.01,2013-07-03 07:43:00,
2013-07-03 02:48:00,64.6,59.3,29.98,North,5,0.0,0.0,83,0.01,,,0.01,VWS V14.01,2013-07-03 07:48:00,
2013-07-03 02:51:00,64.6,59.3,29.98,North,5,0.0,0.0,83,0.01,,,0.01,VWS V14.01,2013-07-03 07:51:00,
2013-07-03 03:01:00,64.5,59.2,29.98,North,5,0.0,0.0,83,0.01,, +RA,0.01,VWS V14.01,2013-07-03 08:01:00,
2013-07-03 03:04:00,64.5,59.2,29.98,North,5,0.0,0.0,83,0.01,, +RA,0.01,VWS V14.01,2013-07-03 08:04:00,
2013-07-03 03:09:00,64.5,59.2,29.98,North,5,0.0,0.0,83,0.01,, +RA,0.01,VWS V14.01,2013-07-03 08:09:00,
2013-07-03 03:11:00,64.5,59.2,29.98,North,5,0.0,0.0,83,0.01,, +RA,0.01,VWS V14.01,2013-07-03 08:11:00,
2013-07-03 03:19:00,64.5,59.2,29.99,North,5,0.0,0.0,83,0.01,, +RA,0.01,VWS V14.01,2013-07-03 08:19:00,
2013-07-03 03:21:00,64.5,59.2,29.99,North,5,0.0,0.0,83,0.01,, +RA,0.01,VWS V14.01,2013-07-03 08:21:00,
2013-07-03 03:24:00,64.5,59.2,29.99,North,5,0.0,0.0,83,0.01,, +RA,0.01,VWS V14.01,2013-07-03 08:24:00,
2013-07-03 03:29:00,64.5,59.2,29.98,North,5,0.0,0.0,83,0.01,, +RA,0.01,VWS V14.01,2013-07-03 08:29:00,
2013-07-03 03:39:00,64.5,59.2,29.99,North,5,0.0,0.0,83,0.00,,,0.01,VWS V14.01,2013-07-03 08:39:00,
2013-07-03 03:55:00,64.5,59.2,29.99,North,5,0.0,0.0,83,0.00,,,0.01,VWS V14.01,2013-07-03 08:55:00,
2013-07-03 04:00:00,64.5,59.2,29.99,North,5,0.0,0.0,83,0.00,,,0.01,VWS V14.01,2013-07-03 09:00:00,
2013-07-03 04:01:00,64.5,59.2,29.99,North,5,0.0,0.0,83,0.00,,,0.01,VWS V14.01,2013-07-03 09:01:00,
2013-07-03 04:10:00,64.4,59.1,29.99,North,5,0.0,0.0,83,0.00,,,0.01,VWS V14.01,2013-07-03 09:10:00,
2013-07-03 04:11:00,64.4,59.1,29.99,North,5,0.0,0.0,83,0.00,,,0.01,VWS V14.01,2013-07-03 09:11:00,
2013-07-03 04:20:00,64.3,59.0,29.99,North,5,0.0,0.0,83,0.00,,,0.01,VWS V14.01,2013-07-03 09:20:00,
2013-07-03 04:25:00,64.3,59.0,29.99,North,5,0.0,0.0,83,0.00,,,0.01,VWS V14.01,2013-07-03 09:25:00,
2013-07-03 04:30:00,64.3,59.0,29.99,North,5,0.0,0.0,83,0.00,,,0.01,VWS V14.01,2013-07-03 09:30:00,
2013-07-03 04:35:00,64.3,59.0,29.99,North,5,0.0,0.0,83,0.00,,,0.01,VWS V14.01,2013-07-03 09:35:00,
2013-07-03 04:40:00,64.2,58.9,29.99,North,5,0.0,0.0,83,0.00,,,0.01,VWS V14.01,2013-07-03 09:40:00,
2013-07-03 04:45:00,64.2,58.9,29.99,North,5,0.0,0.0,83,0.00,,,0.01,VWS V14.01,2013-07-03 09:45:00,
2013-07-03 04:50:00,64.2,58.9,30.00,North,5,0.0,0.0,83,0.00,,,0.01,VWS V14.01,2013-07-03 09:50:00,
2013-07-03 04:55:00,64.2,58.9,30.00,North,5,0.0,0.0,83,0.00,,,0.01,VWS V14.01,2013-07-03 09:55:00,
2013-07-03 05:01:00,64.2,58.9,30.00,North,5,0.0,0.0,83,0.00,,,0.01,VWS V14.01,2013-07-03 10:01:00,
2013-07-03 05:05:00,64.3,59.0,30.00,North,5,0.0,0.0,83,0.00,,,0.01,VWS V14.01,2013-07-03 10:05:00,
2013-07-03 05:10:00,64.3,59.0,30.00,North,5,0.0,0.0,83,0.00,,,0.01,VWS V14.01,2013-07-03 10:10:00,
2013-07-03 05:15:00,64.3,59.0,30.00,North,5,0.0,0.0,83,0.00,,,0.01,VWS V14.01,2013-07-03 10:15:00,
2013-07-03 05:21:00,64.3,59.0,30.00,North,5,0.0,0.0,83,0.00,,,0.01,VWS V14.01,2013-07-03 10:21:00,
2013-07-03 05:30:00,64.3,59.0,30.01,North,5,0.0,0.0,83,0.00,,,0.01,VWS V14.01,2013-07-03 10:30:00,
2013-07-03 05:35:00,64.2,58.9,30.01,North,5,0.0,0.0,83,0.00,,,0.01,VWS V14.01,2013-07-03 10:35:00,
2013-07-03 05:40:00,64.2,58.9,30.01,North,5,0.0,0.0,83,0.00,,,0.01,VWS V14.01,2013-07-03 10:40:00,
2013-07-03 05:41:00,64.2,58.9,30.01,North,5,0.0,0.0,83,0.00,,,0.01,VWS V14.01,2013-07-03 10:41:00,
2013-07-03 05:50:00,64.2,58.9,30.02,North,5,0.0,0.0,83,0.00,,,0.01,VWS V14.01,2013-07-03 10:50:00,
2013-07-03 05:55:00,64.2,58.9,30.02,North,5,0.0,0.0,83,0.00,,,0.01,VWS V14.01,2013-07-03 10:55:00,
2013-07-03 06:00:00,64.2,58.9,30.02,North,5,0.0,0.0,83,0.00,,,0.01,VWS V14.01,2013-07-03 11:00:00,
2013-07-03 06:05:00,64.2,58.9,30.02,North,5,0.0,0.0,83,0.00,,,0.01,VWS V14.01,2013-07-03 11:05:00,
2013-07-03 06:11:00,64.1,58.8,30.02,North,5,0.0,0.0,83,0.00,,,0.01,VWS V14.01,2013-07-03 11:11:00,
2013-07-03 06:21:00,64.0,58.7,30.03,North,5,0.0,0.0,83,0.00,,,0.01,VWS V14.01,2013-07-03 11:21:00,
2013-07-03 06:26:00,64.0,58.7,30.02,North,5,0.0,0.0,83,0.00,,,0.01,VWS V14.01,2013-07-03 11:26:00,
2013-07-03 06:31:00,64.1,58.8,30.03,North,5,0.0,0.0,83,0.00,,,0.01,VWS V14.01,2013-07-03 11:31:00,
2013-07-03 06:41:00,64.1,58.8,30.03,North,5,0.0,0.0,83,0.00,,,0.01,VWS V14.01,2013-07-03 11:41:00,
2013-07-03 06:46:00,64.1,58.8,30.03,North,5,0.0,0.0,83,0.00,,,0.01,VWS V14.01,2013-07-03 11:46:00,
2013-07-03 06:51:00,64.1,58.8,30.03,North,5,0.0,0.0,83,0.00,,,0.01,VWS V14.01,2013-07-03 11:51:00,
2013-07-03 07:01:00,64.3,59.0,30.04,North,5,0.0,0.0,83,0.00,,,0.01,VWS V14.01,2013-07-03 12:01:00,
2013-07-03 07:06:00,64.4,59.1,30.04,North,5,0.0,0.0,83,0.00,,,0.01,VWS V14.01,2013-07-03 12:06:00,
2013-07-03 07:11:00,64.3,59.0,30.04,North,5,0.0,0.0,83,0.00,,,0.01,VWS V14.01,2013-07-03 12:11:00,
2013-07-03 07:16:00,64.4,59.1,30.04,North,5,0.0,0.0,83,0.00,,,0.01,VWS V14.01,2013-07-03 12:16:00,
2013-07-03 07:21:00,64.5,59.2,30.04,North,5,0.0,0.0,83,0.00,,,0.01,VWS V14.01,2013-07-03 12:21:00,
2013-07-03 07:31:00,64.6,59.3,30.04,North,5,0.0,1.0,83,0.00,,,0.01,VWS V14.01,2013-07-03 12:31:00,
2013-07-03 07:36:00,64.8,59.5,30.04,North,5,0.0,1.0,83,0.00,,,0.01,VWS V14.01,2013-07-03 12:36:00,
2013-07-03 07:41:00,64.7,59.4,30.04,WSW,239,0.0,2.0,83,0.00,,,0.01,VWS V14.01,2013-07-03 12:41:00,
2013-07-03 07:51:00,64.9,59.6,30.05,WSW,239,0.0,0.0,83,0.00,,,0.01,VWS V14.01,2013-07-03 12:51:00,
2013-07-03 07:56:00,64.6,59.0,30.05,WSW,239,0.0,1.0,82,0.00,,,0.01,VWS V14.01,2013-07-03 12:56:00,
2013-07-03 08:01:00,64.5,59.2,30.05,WSW,239,0.0,0.0,83,0.00,,,0.01,VWS V14.01,2013-07-03 13:01:00,
2013-07-03 08:06:00,64.7,59.4,30.06,WSW,239,0.0,0.0,83,0.00,,,0.01,VWS V14.01,2013-07-03 13:06:00,
2013-07-03 08:11:00,64.9,59.6,30.06,WSW,239,0.0,0.0,83,0.00,,,0.01,VWS V14.01,2013-07-03 13:11:00,
2013-07-03 08:17:00,65.2,59.9,30.06,WSW,239,0.0,1.0,83,0.00,,,0.01,VWS V14.01,2013-07-03 13:17:00,
2013-07-03 08:22:00,65.3,60.0,30.07,WSW,239,0.0,0.0,83,0.00,,,0.01,VWS V14.01,2013-07-03 13:22:00,
2013-07-03 08:27:00,65.5,59.9,30.07,WSW,239,0.0,0.0,82,0.00,,,0.01,VWS V14.01,2013-07-03 13:27:00,
2013-07-03 08:41:00,65.9,60.3,30.07,WSW,239,0.0,1.0,82,0.00,,CLR,0.01,VWS V14.01,2013-07-03 13:41:00,
2013-07-03 08:51:00,66.3,60.7,30.07,WSW,239,0.0,0.0,82,0.00,,CLR,0.01,VWS V14.01,2013-07-03 13:51:00,
2013-07-03 08:52:00,66.4,60.7,30.07,WSW,239,0.0,0.0,82,0.00,,CLR,0.01,VWS V14.01,2013-07-03 13:52:00,
2013-07-03 08:57:00,66.4,61.1,30.07,WSW,239,0.0,2.0,83,0.00,,CLR,0.01,VWS V14.01,2013-07-03 13:57:00,
2013-07-03 09:02:00,66.5,61.2,30.07,WSW,239,0.0,0.0,83,0.00,,CLR,0.01,VWS V14.01,2013-07-03 14:02:00,
2013-07-03 09:07:00,66.7,61.7,30.07,WSW,238,0.0,4.0,84,0.00,,CLR,0.01,VWS V14.01,2013-07-03 14:07:00,
2013-07-03 09:11:00,66.7,61.7,30.07,WSW,240,0.0,4.0,84,0.00,,CLR,0.01,VWS V14.01,2013-07-03 14:11:00,
2013-07-03 09:17:00,67.0,62.3,30.07,WSW,240,0.0,1.0,85,0.00,,CLR,0.01,VWS V14.01,2013-07-03 14:17:00,
2013-07-03 09:22:00,67.1,62.5,30.07,WSW,238,0.0,4.0,85,0.00,,CLR,0.01,VWS V14.01,2013-07-03 14:22:00,
2013-07-03 09:27:00,67.4,62.4,30.07,WSW,239,0.0,5.0,84,0.00,,CLR,0.01,VWS V14.01,2013-07-03 14:27:00,
2013-07-03 09:32:00,67.7,62.7,30.07,WSW,239,0.0,0.0,84,0.00,,CLR,0.01,VWS V14.01,2013-07-03 14:32:00,
2013-07-03 09:37:00,68.0,63.0,30.07,SW,222,0.0,3.0,84,0.00,,CLR,0.01,VWS V14.01,2013-07-03 14:37:00,
2013-07-03 09:42:00,68.3,63.3,30.07,SW,222,0.0,0.0,84,0.00,,CLR,0.01,VWS V14.01,2013-07-03 14:42:00,
2013-07-03 09:47:00,68.7,63.7,30.07,SW,222,0.0,1.0,84,0.00,,CLR,0.01,VWS V14.01,2013-07-03 14:47:00,
2013-07-03 09:51:00,69.0,63.6,30.07,SW,222,0.0,1.0,83,0.00,,CLR,0.01,VWS V14.01,2013-07-03 14:51:00,
2013-07-03 09:57:00,69.3,63.6,30.07,SW,222,0.0,3.0,82,0.00,,CLR,0.01,VWS V14.01,2013-07-03 14:57:00,
2013-07-03 10:02:00,70.0,63.9,30.07,SW,222,0.0,1.0,81,0.00,,CLR,0.01,VWS V14.01,2013-07-03 15:02:00,
2013-07-03 10:08:00,70.0,63.2,30.07,SW,222,0.0,3.0,79,0.00,,CLR,0.01,VWS V14.01,2013-07-03 15:08:00,
2013-07-03 10:11:00,69.8,63.7,30.07,SW,236,3.0,5.0,81,0.00,,CLR,0.01,VWS V14.01,2013-07-03 15:11:00,
2013-07-03 10:18:00,69.2,63.1,30.07,SW,236,2.0,5.0,81,0.00,,CLR,0.01,VWS V14.01,2013-07-03 15:18:00,
2013-07-03 10:23:00,69.4,63.3,30.07,SW,236,0.0,0.0,81,0.00,,CLR,0.01,VWS V14.01,2013-07-03 15:23:00,
2013-07-03 10:28:00,70.4,63.6,30.07,SW,236,0.0,1.0,79,0.00,,CLR,0.01,VWS V14.01,2013-07-03 15:28:00,
2013-07-03 10:31:00,71.6,64.4,30.07,SW,236,0.0,1.0,78,0.00,,CLR,0.01,VWS V14.01,2013-07-03 15:31:00,
2013-07-03 10:38:00,71.5,63.2,30.07,SSW,213,0.0,3.0,75,0.00,,CLR,0.01,VWS V14.01,2013-07-03 15:38:00,
2013-07-03 10:43:00,71.9,63.9,30.07,SSW,210,0.0,4.0,76,0.00,,CLR,0.01,VWS V14.01,2013-07-03 15:43:00,
2013-07-03 10:48:00,71.4,64.2,30.07,SSW,211,0.0,4.0,78,0.00,,CLR,0.01,VWS V14.01,2013-07-03 15:48:00,
2013-07-03 10:53:00,71.7,64.1,30.07,SW,232,0.0,4.0,77,0.00,,CLR,0.01,VWS V14.01,2013-07-03 15:53:00,
2013-07-03 10:58:00,72.6,65.0,30.07,SW,218,1.0,4.0,77,0.00,,CLR,0.01,VWS V14.01,2013-07-03 15:58:00,
2013-07-03 11:03:00,73.3,65.7,30.07,SW,215,2.0,2.0,77,0.00,,CLR,0.01,VWS V14.01,2013-07-03 16:03:00,
2013-07-03 11:08:00,73.3,63.7,30.07,SW,221,0.0,4.0,72,0.00,,CLR,0.01,VWS V14.01,2013-07-03 16:08:00,
2013-07-03 11:11:00,73.6,64.4,30.07,SSE,161,0.0,4.0,73,0.00,,CLR,0.01,VWS V14.01,2013-07-03 16:11:00,
2013-07-03 11:18:00,74.5,63.7,30.07,SSE,163,1.0,2.0,69,0.00,,CLR,0.01,VWS V14.01,2013-07-03 16:18:00,
2013-07-03 11:23:00,73.7,63.7,30.06,SSW,198,1.0,4.0,71,0.00,,CLR,0.01,VWS V14.01,2013-07-03 16:23:00,
2013-07-03 11:31:00,74.3,63.9,30.06,South,179,0.0,4.0,70,0.00,,CLR,0.01,VWS V14.01,2013-07-03 16:31:00,
2013-07-03 11:38:00,75.5,62.0,30.06,South,180,0.0,3.0,63,0.00,,CLR,0.01,VWS V14.01,2013-07-03 16:38:00,
2013-07-03 11:43:00,76.0,63.4,30.06,NE,50,0.0,3.0,65,0.00,,CLR,0.01,VWS V14.01,2013-07-03 16:43:00,
2013-07-03 11:48:00,76.0,62.5,30.06,NE,50,0.0,3.0,63,0.00,,CLR,0.01,VWS V14.01,2013-07-03 16:48:00,
2013-07-03 11:53:00,76.4,62.4,30.06,NE,42,0.0,3.0,62,0.00,,CLR,0.01,VWS V14.01,2013-07-03 16:53:00,
2013-07-03 11:58:00,75.9,61.5,30.06,East,79,1.0,3.0,61,0.00,,CLR,0.01,VWS V14.01,2013-07-03 16:58:00,
2013-07-03 12:03:00,76.2,62.7,30.06,ENE,78,4.0,5.0,63,0.00,,CLR,0.01,VWS V14.01,2013-07-03 17:03:00,
2013-07-03 12:08:00,76.0,63.0,30.07,ENE,77,0.0,5.0,64,0.00,,CLR,0.01,VWS V14.01,2013-07-03 17:08:00,
2013-07-03 12:13:00,75.1,62.1,30.07,ENE,74,0.0,2.0,64,0.00,,CLR,0.01,VWS V14.01,2013-07-03 17:13:00,
2013-07-03 12:21:00,75.5,61.1,30.07,SW,227,3.0,5.0,61,0.00,,CLR,0.01,VWS V14.01,2013-07-03 17:21:00,
2013-07-03 12:28:00,76.0,62.5,30.07,SW,234,0.0,6.0,63,0.00,,CLR,0.01,VWS V14.01,2013-07-03 17:28:00,
2013-07-03 12:33:00,76.8,62.3,30.07,SW,235,0.0,3.0,61,0.00,,CLR,0.01,VWS V14.01,2013-07-03 17:33:00,
2013-07-03 12:38:00,75.7,60.8,30.07,SSE,164,0.0,6.0,60,0.00,,CLR,0.01,VWS V14.01,2013-07-03 17:38:00,
2013-07-03 12:43:00,76.1,62.2,30.07,WSW,240,0.0,2.0,62,0.00,,CLR,0.01,VWS V14.01,2013-07-03 17:43:00,
2013-07-03 12:48:00,76.9,60.5,30.07,WSW,240,0.0,4.0,57,0.00,,CLR,0.01,VWS V14.01,2013-07-03 17:48:00,
2013-07-03 12:53:00,76.6,60.7,30.06,WSW,240,0.0,1.0,58,0.00,,CLR,0.01,VWS V14.01,2013-07-03 17:53:00,
2013-07-03 12:58:00,77.9,63.4,30.06,WSW,240,0.0,1.0,61,0.00,,CLR,0.01,VWS V14.01,2013-07-03 17:58:00,
2013-07-03 13:03:00,77.8,61.4,30.06,WSW,240,0.0,1.0,57,0.00,,CLR,0.01,VWS V14.01,2013-07-03 18:03:00,
2013-07-03 13:08:00,78.7,61.7,30.06,WSW,240,0.0,1.0,56,0.00,,CLR,0.01,VWS V14.01,2013-07-03 18:08:00,
2013-07-03 13:13:00,78.7,61.2,30.06,WSW,240,0.0,1.0,55,0.00,,CLR,0.01,VWS V14.01,2013-07-03 18:13:00,
2013-07-03 13:18:00,77.6,61.7,30.06,SSE,151,0.0,5.0,58,0.00,,CLR,0.01,VWS V14.01,2013-07-03 18:18:00,
2013-07-03 13:23:00,78.7,62.2,30.06,South,172,0.0,2.0,57,0.00,,CLR,0.01,VWS V14.01,2013-07-03 18:23:00,
2013-07-03 13:28:00,77.9,60.5,30.06,SW,228,0.0,3.0,55,0.00,,CLR,0.01,VWS V14.01,2013-07-03 18:28:00,
2013-07-03 13:33:00,77.5,62.1,30.06,SW,229,2.0,4.0,59,0.00,,CLR,0.01,VWS V14.01,2013-07-03 18:33:00,
2013-07-03 13:38:00,77.4,62.0,30.06,SW,229,0.0,4.0,59,0.00,,CLR,0.01,VWS V14.01,2013-07-03 18:38:00,
2013-07-03 13:48:00,77.1,62.6,30.06,SW,229,0.0,3.0,61,0.00,,CLR,0.01,VWS V14.01,2013-07-03 18:48:00,
2013-07-03 13:53:00,78.0,63.9,30.05,SSE,162,0.0,2.0,62,0.00,,CLR,0.01,VWS V14.01,2013-07-03 18:53:00,
2013-07-03 13:59:00,78.5,63.0,30.05,SSW,200,3.0,4.0,59,0.00,,CLR,0.01,VWS V14.01,2013-07-03 18:59:00,
2013-07-03 14:04:00,77.5,60.6,30.05,SW,224,0.0,4.0,56,0.00,,CLR,0.01,VWS V14.01,2013-07-03 19:04:00,
2013-07-03 14:09:00,76.8,61.4,30.05,SW,234,0.0,5.0,59,0.00,,CLR,0.01,VWS V14.01,2013-07-03 19:09:00,
2013-07-03 14:14:00,78.1,61.1,30.05,SW,234,1.0,3.0,56,0.00,,CLR,0.01,VWS V14.01,2013-07-03 19:14:00,
2013-07-03 14:19:00,78.8,63.3,30.05,WSW,239,0.0,5.0,59,0.00,,CLR,0.01,VWS V14.01,2013-07-03 19:19:00,
2013-07-03 14:24:00,79.6,63.5,30.05,WSW,250,2.0,4.0,58,0.00,,CLR,0.01,VWS V14.01,2013-07-03 19:24:00,
2013-07-03 14:29:00,78.7,61.7,30.05,ENE,64,0.0,6.0,56,0.00,,CLR,0.01,VWS V14.01,2013-07-03 19:29:00,
2013-07-03 14:34:00,79.0,61.5,30.05,ENE,64,0.0,1.0,55,0.00,,CLR,0.01,VWS V14.01,2013-07-03 19:34:00,
2013-07-03 14:39:00,78.9,61.9,30.05,NNW,329,0.0,4.0,56,0.00,,CLR,0.01,VWS V14.01,2013-07-03 19:39:00,
2013-07-03 14:44:00,79.1,63.6,30.04,ENE,78,2.0,2.0,59,0.00,,CLR,0.01,VWS V14.01,2013-07-03 19:44:00,
2013-07-03 14:49:00,79.8,63.7,30.04,SSW,201,0.0,3.0,58,0.00,,CLR,0.01,VWS V14.01,2013-07-03 19:49:00,
2013-07-03 14:54:00,78.8,61.3,30.04,SW,225,0.0,2.0,55,0.00,,CLR,0.01,VWS V14.01,2013-07-03 19:54:00,
2013-07-03 15:01:00,79.0,63.5,30.04,SW,225,0.0,2.0,59,0.00,,CLR,0.01,VWS V14.01,2013-07-03 20:01:00,
2013-07-03 15:09:00,80.4,63.8,30.04,SW,231,0.0,1.0,57,0.00,,CLR,0.01,VWS V14.01,2013-07-03 20:09:00,
2013-07-03 15:19:00,79.6,62.5,30.04,South,170,2.0,4.0,56,0.00,,CLR,0.01,VWS V14.01,2013-07-03 20:19:00,
2013-07-03 15:24:00,80.5,63.9,30.04,NNE,24,0.0,1.0,57,0.00,,CLR,0.01,VWS V14.01,2013-07-03 20:24:00,
2013-07-03 15:29:00,81.2,63.0,30.03,NNE,24,0.0,1.0,54,0.00,,CLR,0.01,VWS V14.01,2013-07-03 20:29:00,
2013-07-03 15:34:00,80.8,63.1,30.03,NW,306,1.0,3.0,55,0.00,,CLR,0.01,VWS V14.01,2013-07-03 20:34:00,
2013-07-03 15:41:00,79.4,62.3,30.04,ENE,63,2.0,7.0,56,0.00,,CLR,0.01,VWS V14.01,2013-07-03 20:41:00,
2013-07-03 15:49:00,79.6,63.0,30.03,ENE,60,0.0,6.0,57,0.00,,CLR,0.01,VWS V14.01,2013-07-03 20:49:00,
2013-07-03 15:54:00,80.1,62.0,30.03,East,97,0.0,2.0,54,0.00,,CLR,0.01,VWS V14.01,2013-07-03 20:54:00,
2013-07-03 15:59:00,79.8,62.2,30.03,North,360,0.0,4.0,55,0.00,,CLR,0.01,VWS V14.01,2013-07-03 20:59:00,
2013-07-03 16:04:00,80.0,63.4,30.04,East,79,1.0,2.0,57,0.00,,CLR,0.01,VWS V14.01,2013-07-03 21:04:00,
2013-07-03 16:09:00,80.3,63.2,30.03,ENE,72,0.0,2.0,56,0.00,,CLR,0.01,VWS V14.01,2013-07-03 21:09:00,
2013-07-03 16:19:00,79.6,63.0,30.03,ENE,71,0.0,1.0,57,0.00,,CLR,0.01,VWS V14.01,2013-07-03 21:19:00,
2013-07-03 16:24:00,78.9,61.4,30.03,ENE,71,0.0,0.0,55,0.00,,CLR,0.01,VWS V14.01,2013-07-03 21:24:00,
2013-07-03 16:31:00,78.6,62.6,30.03,ENE,71,0.0,1.0,58,0.00,,CLR,0.01,VWS V14.01,2013-07-03 21:31:00,
2013-07-03 16:40:00,78.0,62.0,30.02,ENE,72,0.0,3.0,58,0.00,,CLR,0.01,VWS V14.01,2013-07-03 21:40:00,
2013-07-03 16:45:00,77.8,62.8,30.02,ENE,72,0.0,0.0,60,0.00,,CLR,0.01,VWS V14.01,2013-07-03 21:45:00,
2013-07-03 16:50:00,77.6,62.6,30.03,ENE,71,0.0,2.0,60,0.00,,CLR,0.01,VWS V14.01,2013-07-03 21:50:00,
2013-07-03 16:55:00,77.7,60.8,30.02,ENE,68,1.0,5.0,56,0.00,,CLR,0.01,VWS V14.01,2013-07-03 21:55:00,
2013-07-03 17:01:00,78.9,61.4,30.02,ENE,68,0.0,5.0,55,0.00,,CLR,0.01,VWS V14.01,2013-07-03 22:01:00,
2013-07-03 17:10:00,79.8,62.2,30.02,East,88,0.0,5.0,55,0.00,,CLR,0.01,VWS V14.01,2013-07-03 22:10:00,
2013-07-03 17:20:00,79.0,62.0,30.02,ENE,78,0.0,3.0,56,0.00,,CLR,0.01,VWS V14.01,2013-07-03 22:20:00,
2013-07-03 17:25:00,78.7,61.7,30.01,ENE,78,0.0,3.0,56,0.00,,CLR,0.01,VWS V14.01,2013-07-03 22:25:00,
2013-07-03 17:30:00,78.5,62.0,30.02,ENE,78,0.0,3.0,57,0.00,,CLR,0.01,VWS V14.01,2013-07-03 22:30:00,
2013-07-03 17:35:00,78.3,62.3,30.02,ENE,78,0.0,0.0,58,0.00,,CLR,0.01,VWS V14.01,2013-07-03 22:35:00,
2013-07-03 17:40:00,78.2,62.2,30.01,ENE,78,0.0,1.0,58,0.00,,CLR,0.01,VWS V14.01,2013-07-03 22:40:00,
2013-07-03 17:50:00,77.8,62.3,30.01,ENE,78,0.0,1.0,59,0.00,,CLR,0.01,VWS V14.01,2013-07-03 22:50:00,
2013-07-03 17:55:00,77.6,62.6,30.01,ENE,78,0.0,0.0,60,0.00,,CLR,0.01,VWS V14.01,2013-07-03 22:55:00,
2013-07-03 18:01:00,77.3,62.8,30.01,ENE,78,0.0,1.0,61,0.00,,CLR,0.01,VWS V14.01,2013-07-03 23:01:00,
2013-07-03 18:11:00,77.2,62.7,30.00,ENE,78,0.0,0.0,61,0.00,,CLR,0.01,VWS V14.01,2013-07-03 23:11:00,
2013-07-03 18:21:00,77.4,61.5,30.01,ENE,78,0.0,0.0,58,0.00,,CLR,0.01,VWS V14.01,2013-07-03 23:21:00,
2013-07-03 18:26:00,77.4,62.4,30.01,ENE,78,0.0,0.0,60,0.00,,CLR,0.01,VWS V14.01,2013-07-03 23:26:00,
2013-07-03 18:31:00,77.3,61.4,30.01,ENE,78,0.0,0.0,58,0.00,,CLR,0.01,VWS V14.01,2013-07-03 23:31:00,
2013-07-03 18:36:00,77.4,62.4,30.01,ENE,78,0.0,0.0,60,0.00,,CLR,0.01,VWS V14.01,2013-07-03 23:36:00,
2013-07-03 18:41:00,77.5,62.1,30.01,ENE,78,0.0,0.0,59,0.00,,CLR,0.01,VWS V14.01,2013-07-03 23:41:00,
2013-07-03 18:46:00,77.5,62.5,30.01,ENE,78,0.0,0.0,60,0.00,,CLR,0.01,VWS V14.01,2013-07-03 23:46:00,
2013-07-03 18:51:00,77.4,62.0,30.01,ENE,78,0.0,0.0,59,0.00,,CLR,0.01,VWS V14.01,2013-07-03 23:51:00,
2013-07-03 18:56:00,77.4,62.9,30.01,ENE,78,0.0,0.0,61,0.00,,CLR,0.01,VWS V14.01,2013-07-03 23:56:00,
2013-07-03 19:01:00,77.4,62.9,30.01,ENE,78,0.0,0.0,61,0.00,,CLR,0.01,VWS V14.01,2013-07-04 00:01:00,
2013-07-03 19:06:00,77.2,62.7,30.01,ENE,78,0.0,0.0,61,0.00,,CLR,0.01,VWS V14.01,2013-07-04 00:06:00,
2013-07-03 19:11:00,77.0,62.5,30.01,ENE,78,0.0,0.0,61,0.00,,CLR,0.01,VWS V14.01,2013-07-04 00:11:00,
2013-07-03 19:16:00,76.9,62.9,30.01,ENE,78,0.0,0.0,62,0.00,,CLR,0.01,VWS V14.01,2013-07-04 00:16:00,
2013-07-03 19:21:00,76.8,62.8,30.01,ENE,78,0.0,0.0,62,0.00,,CLR,0.01,VWS V14.01,2013-07-04 00:21:00,
2013-07-03 19:26:00,76.6,62.2,30.02,ENE,78,0.0,0.0,61,0.00,,CLR,0.01,VWS V14.01,2013-07-04 00:26:00,
2013-07-03 19:31:00,76.5,63.4,30.02,ENE,78,0.0,0.0,64,0.00,,CLR,0.01,VWS V14.01,2013-07-04 00:31:00,
2013-07-03 19:36:00,76.3,63.2,30.02,ENE,78,0.0,0.0,64,0.00,,CLR,0.01,VWS V14.01,2013-07-04 00:36:00,
2013-07-03 19:41:00,76.0,63.0,30.02,ENE,78,0.0,0.0,64,0.00,,CLR,0.01,VWS V14.01,2013-07-04 00:41:00,
2013-07-03 19:46:00,75.8,63.2,30.02,ENE,78,0.0,0.0,65,0.00,,CLR,0.01,VWS V14.01,2013-07-04 00:46:00,
2013-07-03 19:51:00,75.5,63.4,30.02,ENE,78,0.0,0.0,66,0.00,,CLR,0.01,VWS V14.01,2013-07-04 00:51:00,
2013-07-03 19:56:00,75.2,63.1,30.02,ENE,78,0.0,0.0,66,0.00,,CLR,0.01,VWS V14.01,2013-07-04 00:56:00,
2013-07-03 20:01:00,74.9,62.8,30.01,ENE,78,0.0,0.0,66,0.00,,CLR,0.01,VWS V14.01,2013-07-04 01:01:00,
2013-07-03 20:06:00,74.6,62.9,30.02,ENE,78,0.0,0.0,67,0.00,,CLR,0.01,VWS V14.01,2013-07-04 01:06:00,
2013-07-03 20:16:00,73.6,62.8,30.02,ENE,78,0.0,0.0,69,0.00,,CLR,0.01,VWS V14.01,2013-07-04 01:16:00,
2013-07-03 20:27:00,72.7,62.8,30.03,ENE,78,0.0,0.0,71,0.00,,CLR,0.01,VWS V14.01,2013-07-04 01:27:00,
2013-07-03 20:32:00,72.2,62.7,30.02,ENE,78,0.0,0.0,72,0.00,,CLR,0.01,VWS V14.01,2013-07-04 01:32:00,
2013-07-03 20:37:00,71.7,62.6,30.03,ENE,78,0.0,0.0,73,0.00,,CLR,0.01,VWS V14.01,2013-07-04 01:37:00,
2013-07-03 20:51:00,70.7,62.8,30.03,ENE,78,0.0,0.0,76,0.00,,CLR,0.01,VWS V14.01,2013-07-04 01:51:00,
2013-07-03 20:57:00,70.4,62.8,30.03,ENE,78,0.0,0.0,77,0.00,,CLR,0.01,VWS V14.01,2013-07-04 01:57:00,
2013-07-03 21:02:00,70.1,62.6,30.03,ENE,78,0.0,0.0,77,0.00,,CLR,0.01,VWS V14.01,2013-07-04 02:02:00,
2013-07-03 21:07:00,69.9,62.7,30.03,ENE,78,0.0,0.0,78,0.00,,CLR,0.01,VWS V14.01,2013-07-04 02:07:00,
2013-07-03 21:12:00,69.8,63.0,30.04,ENE,78,0.0,0.0,79,0.00,,CLR,0.01,VWS V14.01,2013-07-04 02:12:00,
2013-07-03 21:17:00,69.6,63.2,30.04,ENE,78,0.0,0.0,80,0.00,,CLR,0.01,VWS V14.01,2013-07-04 02:17:00,
2013-07-03 21:22:00,69.4,63.0,30.04,ENE,78,0.0,0.0,80,0.00,,CLR,0.01,VWS V14.01,2013-07-04 02:22:00,
2013-07-03 21:27:00,69.3,63.2,30.04,ENE,78,0.0,0.0,81,0.00,,CLR,0.01,VWS V14.01,2013-07-04 02:27:00,
2013-07-03 21:32:00,69.2,63.5,30.04,ENE,78,0.0,0.0,82,0.00,,CLR,0.01,VWS V14.01,2013-07-04 02:32:00,
2013-07-03 21:37:00,69.0,63.3,30.04,ENE,78,0.0,0.0,82,0.00,,CLR,0.01,VWS V14.01,2013-07-04 02:37:00,
2013-07-03 21:42:00,68.9,63.5,30.05,ENE,78,0.0,0.0,83,0.00,,CLR,0.01,VWS V14.01,2013-07-04 02:42:00,
2013-07-03 21:47:00,68.7,63.3,30.05,ENE,78,0.0,0.0,83,0.00,,CLR,0.01,VWS V14.01,2013-07-04 02:47:00,
2013-07-03 21:52:00,68.5,63.1,30.05,ENE,78,0.0,0.0,83,0.00,,CLR,0.01,VWS V14.01,2013-07-04 02:52:00,
2013-07-03 22:01:00,68.1,62.8,30.05,ENE,78,0.0,0.0,83,0.00,,CLR,0.01,VWS V14.01,2013-07-04 03:01:00,
2013-07-03 22:07:00,67.9,62.5,30.05,ENE,78,0.0,0.0,83,0.00,,CLR,0.01,VWS V14.01,2013-07-04 03:07:00,
2013-07-03 22:12:00,67.7,62.7,30.05,ENE,78,0.0,0.0,84,0.00,,CLR,0.01,VWS V14.01,2013-07-04 03:12:00,
2013-07-03 22:17:00,67.5,62.5,30.05,ENE,78,0.0,0.0,84,0.00,,CLR,0.01,VWS V14.01,2013-07-04 03:17:00,
2013-07-03 22:22:00,67.4,62.4,30.05,ENE,78,0.0,0.0,84,0.00,,CLR,0.01,VWS V14.01,2013-07-04 03:22:00,
2013-07-03 22:31:00,67.1,62.1,30.06,ENE,78,0.0,0.0,84,0.00,,CLR,0.01,VWS V14.01,2013-07-04 03:31:00,
2013-07-03 22:38:00,66.9,61.9,30.05,ENE,78,0.0,0.0,84,0.00,,CLR,0.01,VWS V14.01,2013-07-04 03:38:00,
2013-07-03 22:48:00,66.6,61.6,30.06,ENE,78,0.0,0.0,84,0.00,,CLR,0.01,VWS V14.01,2013-07-04 03:48:00,
2013-07-03 22:53:00,66.5,61.5,30.06,ENE,78,0.0,0.0,84,0.00,,CLR,0.01,VWS V14.01,2013-07-04 03:53:00,
2013-07-03 22:58:00,66.3,61.3,30.06,ENE,78,0.0,0.0,84,0.00,,CLR,0.01,VWS V14.01,2013-07-04 03:58:00,
2013-07-03 23:01:00,66.2,61.2,30.06,ENE,78,0.0,0.0,84,0.00,,CLR,0.01,VWS V14.01,2013-07-04 04:01:00,
2013-07-03 23:03:00,66.2,61.2,30.06,ENE,78,0.0,0.0,84,0.00,,CLR,0.01,VWS V14.01,2013-07-04 04:03:00,
2013-07-03 23:08:00,66.1,61.1,30.06,ENE,78,0.0,0.0,84,0.00,,CLR,0.01,VWS V14.01,2013-07-04 04:08:00,
2013-07-03 23:13:00,65.9,60.9,30.06,ENE,78,0.0,0.0,84,0.00,,CLR,0.01,VWS V14.01,2013-07-04 04:13:00,
2013-07-03 23:18:00,65.8,60.8,30.06,ENE,78,0.0,0.0,84,0.00,,CLR,0.01,VWS V14.01,2013-07-04 04:18:00,
2013-07-03 23:23:00,65.6,60.6,30.06,ENE,78,0.0,0.0,84,0.00,,CLR,0.01,VWS V14.01,2013-07-04 04:23:00,
2013-07-03 23:28:00,65.5,60.5,30.06,ENE,78,0.0,0.0,84,0.00,,CLR,0.01,VWS V14.01,2013-07-04 04:28:00,
2013-07-03 23:33:00,65.3,60.3,30.06,ENE,78,0.0,0.0,84,0.00,,CLR,0.01,VWS V14.01,2013-07-04 04:33:00,
2013-07-03 23:38:00,65.2,60.2,30.06,ENE,78,0.0,0.0,84,0.00,,CLR,0.01,VWS V14.01,2013-07-04 04:38:00,
2013-07-03 23:43:00,65.1,60.2,30.06,ENE,78,0.0,0.0,84,0.00,,CLR,0.01,VWS V14.01,2013-07-04 04:43:00,
2013-07-03 23:48:00,64.9,60.0,30.06,ENE,78,0.0,0.0,84,0.00,,CLR,0.01,VWS V14.01,2013-07-04 04:48:00,
2013-07-03 23:53:00,64.7,59.8,30.06,ENE,78,0.0,0.0,84,0.00,,CLR,0.01,VWS V14.01,2013-07-04 04:53:00,
2013-07-03 23:58:00,64.6,59.7,30.06,ENE,78,0.0,0.0,84,0.00,,CLR,0.01,VWS V14.01,2013-07-04 04:58:00,